Weather History for St. Charles, MO

Change the Weather History Date:

Monday, November 4, 2013

  Actual Average (KSTL) Record (KSTL)
Temperature  
Mean Temperature 53 °F 52 °F  
Max Temperature 60 °F 61 °F 82 °F (1978)
Min Temperature 46 °F 43 °F 18 °F (1951)
Degree Days  
Heating Degree Days 12 13  
Month to date heating degree days 50  
Since 1 July heating degree days 326  
Cooling Degree Days 0 0  
Month to date cooling degree days 0  
Year to date cooling degree days 1642  
Growing Degree Days 3 (Base 50)    
Moisture  
Dew Point 40 °F    
Average Humidity 64    
Maximum Humidity 72    
Minimum Humidity 51    
Precipitation  
Precipitation 0.00 in 0.12 in 1.35 in (1990)
Month to date precipitation 0.47  
Year to date precipitation 34.68  
Snow  
Snow 0.00 in 0.00 in T in (1992)
Month to date snowfall 0.0  
Since 1 July snowfall 0.0  
Since 1 September snowfall 0.0  
Snow Depth -    
Sea Level Pressure  
Sea Level Pressure 30.16 in    
Wind  
Wind Speed 12 mph (SSE)    
Max Wind Speed 17 mph    
Max Gust Speed -    
Visibility 10 miles    
Events      
T = Trace of Precipitation, MM = Missing Value Source: NWS Daily Summary

Daily Weather History Graph

Daily Weather History Graph

Search for Another Location

Airport:

Trip Planner

Search our weather history database for the weather conditions in past years. The results will help you decide how hot, cold, wet, or windy it might be!

Date:

Astronomy

Nov. 04, 2013 Rise Set
Actual Time 6:32 AM CST 4:57 PM CST
Civil Twilight 6:04 AM CST 5:25 PM CST
Nautical Twilight 5:33 AM CST 5:56 PM CST
Astronomical Twilight 5:01 AM CST 6:28 PM CST
Moon 7:42 AM CST (11/4) 6:03 PM CST (11/4)
Length of Visible Light 11h 20m
Length of Day
10h 25m
New Moon, 2% of the Moon is Illuminated
Nov 4
New Moon
Nov 9
First Quarter
Nov 17
Full
Nov 25
Last Quarter
Dec 2
New

Hourly Weather History & Observations

Time (CST) Temp. Dew Point Humidity Pressure Visibility Wind Dir Wind Speed Gust Speed Precip Events Conditions
12:54 AM 48.0 °F 35.1 °F 61% 30.17 in 10.0 mi SE 9.2 mph - N/A   Clear
1:54 AM 48.0 °F 36.0 °F 63% 30.15 in 10.0 mi SE 9.2 mph - N/A   Clear
2:54 AM 48.0 °F 36.0 °F 63% 30.14 in 10.0 mi SE 13.8 mph - N/A   Clear
3:54 AM 46.9 °F 36.0 °F 66% 30.14 in 10.0 mi SE 13.8 mph - N/A   Clear
4:54 AM 46.9 °F 37.0 °F 68% 30.15 in 10.0 mi SE 11.5 mph - N/A   Clear
5:54 AM 46.9 °F 37.0 °F 68% 30.17 in 10.0 mi SE 10.4 mph - N/A   Clear
6:54 AM 46.9 °F 37.0 °F 68% 30.16 in 10.0 mi SE 12.7 mph - N/A   Clear
7:54 AM 48.0 °F 37.0 °F 66% 30.17 in 10.0 mi SE 15.0 mph - N/A   Clear
8:54 AM 50.0 °F 37.9 °F 63% 30.17 in 10.0 mi SE 15.0 mph - N/A   Clear
9:54 AM 51.1 °F 37.9 °F 61% 30.17 in 10.0 mi SSE 12.7 mph - N/A   Partly Cloudy
10:54 AM 53.1 °F 39.9 °F 61% 30.16 in 10.0 mi SSE 15.0 mph - N/A   Clear
11:54 AM 54.0 °F 41.0 °F 62% 30.16 in 10.0 mi SSE 11.5 mph - N/A   Scattered Clouds
12:54 PM 55.0 °F 42.1 °F 62% 30.12 in 10.0 mi SSE 12.7 mph - N/A   Overcast
1:54 PM 55.9 °F 42.1 °F 60% 30.11 in 10.0 mi SSE 15.0 mph - N/A   Overcast
2:54 PM 60.1 °F 43.0 °F 53% 30.10 in 10.0 mi South 13.8 mph - N/A   Partly Cloudy
3:54 PM 60.1 °F 42.1 °F 51% 30.11 in 10.0 mi South 17.3 mph - N/A   Clear
4:54 PM 57.0 °F 42.1 °F 57% 30.12 in 10.0 mi South 12.7 mph - N/A   Clear
5:54 PM 53.1 °F 43.0 °F 69% 30.15 in 10.0 mi SSE 8.1 mph - N/A   Mostly Cloudy
6:54 PM 53.1 °F 44.1 °F 71% 30.18 in 10.0 mi South 8.1 mph - N/A   Mostly Cloudy
7:54 PM 53.1 °F 44.1 °F 71% 30.18 in 10.0 mi SSE 9.2 mph - N/A   Scattered Clouds
8:54 PM 55.0 °F 44.1 °F 67% 30.19 in 10.0 mi South 11.5 mph - N/A   Overcast
9:54 PM 55.0 °F 45.0 °F 69% 30.20 in 10.0 mi South 5.8 mph - N/A   Overcast
10:54 PM 55.0 °F 46.0 °F 72% 30.21 in 10.0 mi South 8.1 mph - N/A   Overcast
11:54 PM 55.0 °F 46.0 °F 72% 30.22 in 10.0 mi South 11.5 mph - N/A   Overcast